RH
57 61 62 61 59 54 44 38 54 45 38 75 83 86 92 86 90 88 88 88 85 85 82 80 81 83 82
59 62 59 60 55 48 53 48 52 54 39 42 53 64 80 94 94 93 95 88 90 88 80 79 81 82 82
53 57 56 58 56 53 54 52 55 52 54 55 48 59 69 69 83 84 75 79 78 77 80 84 84 83 82
50 50 52 55 59 59 55 54 58 61 58 55 50 59 45 50 52 50 48 47 69 80 82 82 83 83 81
52 55 58 59 60 61 68 68 64 59 63 58 58 55 57 62 66 62 66 79 80 81 81 82 82 83 83
72 66 65 66 69 71 74 72 69 60 61 58 52 51 57 60 64 58 54 75 78 81 80 79 81 81 81
90 86 84 78 76 75 74 70 67 62 58 62 62 57 59 61 63 68 76 74 73 73 76 79 83 85 86
64 66 69 69 77 77 74 73 72 68 63 67 70 68 63 62 62 64 69 72 71 74 80 78 72 73 76
80 85 87 85 82 84 85 88 87 80 69 67 80 78 68 61 58 58 57 53 70 73 75 75 78 78 78
68 67 68 70 76 78 82 89 89 88 74 73 80 79 72 63 59 60 60 64 64 61 65 70 73 77 78
79 80 74 70 69 68 68 71 74 75 72 68 70 75 77 74 71 66 65 66 61 60 60 62 67 72 76
90 83 86 84 71 68 68 70 71 74 77 76 78 77 86 88 88 83 78 67 65 65 66 66 68 71 74
70 71 74 82 79 78 80 80 76 75 78 84 81 82 92 98 89 84 84 75 69 73 65 69 73 74 75
71 69 66 67 72 74 79 85 89 90 86 80 81 90 100 100 99 97 92 84 72 70 74 80 79 78 77
81 83 89 89 87 82 81 80 81 83 84 82 82 80 77 85 100 97 93 89 86 83 82 86 84 83 80
76 79 83 84 83 82 85 88 92 90 89 85 84 85 98 99 96 97 95 96 89 80 84 87 87 77 81
85 86 87 88 81 87 86 85 85 84 81 85 88 92 92 91 85 88 100 89 84 90 87 86 88 84 84
Wind_Speed
4 4 1 1 3 5 7 5 5 7 5 5 5 6 5 5 4 3 3 4 6 7 9 11 11 10 10
5 2 2 3 4 5 5 4 5 7 8 7 6 6 5 5 5 5 6 4 6 9 10 11 11 11 11
4 2 1 3 3 5 7 6 5 8 8 8 8 6 6 7 6 8 10 11 11 11 11 11 12 12 12
2 0 1 3 5 5 6 6 8 8 8 8 9 9 10 10 10 11 11 11 10 10 11 12 12 12 12
0 1 3 4 5 5 8 9 11 9 8 8 8 8 9 10 11 11 10 10 11 12 12 13 13 13 14
4 5 6 6 6 7 8 9 6 4 7 10 11 14 12 11 10 12 12 13 13 14 14 15 15 15 15
8 9 9 9 9 10 10 11 13 14 14 14 13 14 13 12 12 13 14 14 15 15 15 14 13 13 15
10 12 13 12 13 13 14 16 17 17 15 16 14 16 15 13 14 15 15 14 12 12 12 14 18 19 19
13 14 15 16 17 17 18 16 16 17 16 16 15 17 16 16 16 15 15 15 13 15 17 19 19 19 20
13 14 14 15 15 18 19 19 18 17 14 16 14 15 11 14 13 10 11 14 16 17 19 19 19 20 21
19 17 16 15 15 16 17 19 19 21 18 19 21 18 18 19 17 19 18 18 19 18 18 18 18 17 20
14 14 14 16 17 17 18 19 21 24 21 21 20 19 22 21 19 18 17 20 20 22 21 19 19 20 19
16 16 16 15 16 18 19 20 24 26 25 24 27 26 25 24 18 20 17 20 23 23 22 20 19 20 23
15 17 18 18 18 18 20 20 20 21 21 24 25 26 26 25 24 20 19 18 21 27 26 22 23 24 25
15 16 16 15 16 17 19 21 22 22 23 23 24 27 30 28 24 24 24 25 26 27 25 24 23 24 26
17 17 18 18 20 20 21 22 22 21 22 22 23 24 24 28 30 29 28 25 26 26 22 23 25 28 26
18 19 19 20 21 22 21 22 22 22 23 24 24 22 18 11 21 24 28 26 24 21 23 24 25 30 28
Wind_Direction
132 167 169 195 321 327 325 333 327 323 318 325 329 329 336 331 343 345 330 325 333 342 344 344 343 341 338
142 176 180 262 288 310 305 310 298 303 309 306 302 302 300 303 301 308 311 304 312 325 327 327 328 330 327
122 166 236 297 313 316 312 301 303 304 318 313 306 290 270 272 282 271 274 280 293 306 313 316 318 317 319
97 129 277 285 321 315 320 313 310 303 300 304 280 280 292 284 283 284 285 288 297 302 305 310 315 314 311
256 266 276 281 302 306 305 308 305 294 293 296 293 296 294 289 298 297 293 293 297 301 302 303 304 304 302
288 288 285 290 290 294 296 301 315 299 307 291 288 291 287 283 275 280 288 290 292 293 296 297 297 298 299
269 269 282 284 284 278 279 279 281 286 290 288 289 287 284 278 275 284 286 287 289 291 292 293 295 296 298
263 273 275 276 269 273 280 282 283 282 275 267 280 282 285 277 282 282 284 287 288 291 291 292 296 297 296
272 272 272 270 268 270 264 265 269 269 270 268 265 273 282 288 283 280 277 286 288 294 291 293 295 296 292
283 279 276 274 270 260 266 269 273 279 278 269 261 272 288 278 273 269 274 287 291 292 292 292 293 294 294
282 279 274 268 263 260 260 260 267 271 276 274 276 272 261 267 265 264 274 282 288 290 290 291 291 289 289
281 286 287 275 271 270 267 267 267 269 273 270 274 272 262 260 266 269 262 277 280 286 288 287 286 285 283
279 280 281 280 288 287 280 277 273 269 268 263 265 267 262 254 262 266 270 271 282 281 288 287 283 281 285
285 285 286 284 282 282 281 280 280 280 273 273 269 263 263 262 250 256 260 261 275 283 284 280 279 277 277
290 292 290 288 285 284 282 280 276 277 278 275 269 266 265 260 256 254 257 260 267 274 280 280 278 276 276
285 286 287 286 284 283 279 275 274 275 275 275 274 274 263 250 247 250 252 256 264 271 272 270 275 280 278
278 279 279 280 281 282 279 275 274 275 277 276 273 266 265 268 260 243 243 254 264 266 267 268 270 277 281